Погода в Лесобазе

Россия / Костромская область     58°20′38″N   44°49′27″E
темп.,
°C
ветер,
м/с
пор.,
м/с
влажн.,
%
обл.,
%
осадки,
мм/ч
давл.,
гПа
погр.,
м
22 октября, пт
пт2200:00+9юз41294100 0.0 993616
03:00+9ююз51297100 0.7 991574
06:00+9юз61594100 3.7 989921
09:00+9юз61389100 4.1 988886
12:00+10юз61387100 0.0 9891008
15:00+11юз6137934 0.1 9901175
18:00+8юз51381100 0.1 9911015
21:00+6зюз6138233 0.8 995868
23 октября, сб
сб2300:00+6зюз61270100 0.0 9961389
03:00+4юз5128266 0.1 998925
06:00+5зюз61271100 0.0 9991331
09:00+5юз51180100 0.0 1000893
12:00+6юз51076100 0.1 10021363
15:00+6юз4982100 0.1 1003789
18:00+5ююз3984100 0.1 1003609
21:00+5ююз3890100 0.3 1004758
24 октября, вс
вс2400:00+3ююз269699 0.1 1003183
03:00+3юз279471 0.2 1003366
06:00+3юз2497100 0.3 1003555
09:00+3зюз2597100 0.4 1004438
12:00+3зюз3797100 0.5 1006760
15:00+3з3596100 1.1 1007488
18:00+3з2494100 0.3 1009487
21:00+3сз2592100 0.4 1011357
25 октября, пн
пн2500:00+1с499699 0.3 1013555
03:000ссз498890 0.4 1016827
06:00−2ссз411855 0.0 1019628
09:00−1ссз410795 0.0 1021629
12:00+2сз47575 0.0 10221027
15:00+1сз48615 0.0 10231094
18:00−1зсз28775 0.0 1024283
21:00−2зюз2685100 0.0 1024176
26 октября, вт
вт2600:00−1юз277982 0.0 1023300
03:00−1юз3983100 0.0 1022564
06:00−1юз41095100 0.4 1020488
09:00+1юз5119093 0.8 1019574
12:00+2зюз4977100 0.1 1017604
15:00+2юз41079100 0.1 1016647
18:00+1юз41186100 0.0 1015484
21:000юз41088100 0.0 1014458